SHU5638 UHHH-UHPP

Flight info

Callsign SHU5638
Flight time 2h 5m
Altitude 35000
Route N0480F350 TOMSU G212 FI P176 UB G73 SAMIK
Aircraft A319/M-VGDW/C

Departure

Time 2026-05-07 16:24
Airport Khabarovsk Novy Airport (UHHH)

Arrival

Time 2026-05-07 18:29
Airport Yelizovo Airport (UHPP)
Time Latitude Longitude Altitude Speed Heading
2026-05-07 16:00 48.52566 135.17251 236 ft 0 kts 278°
2026-05-07 16:10 48.52566 135.17255 237 ft 1 kts 278°
2026-05-07 16:11 48.52563 135.17281 235 ft 3 kts 278°
2026-05-07 16:11 48.52561 135.17311 235 ft 3 kts 278°
2026-05-07 16:11 48.52558 135.17341 236 ft 3 kts 279°
2026-05-07 16:11 48.52554 135.17370 235 ft 3 kts 288°
2026-05-07 16:12 48.52548 135.17396 236 ft 3 kts 282°
2026-05-07 16:12 48.52544 135.17412 235 ft 3 kts 217°
2026-05-07 16:12 48.52555 135.17424 235 ft 3 kts 221°
2026-05-07 16:12 48.52569 135.17445 235 ft 3 kts 231°
2026-05-07 16:13 48.52582 135.17469 236 ft 3 kts 223°
2026-05-07 16:13 48.52587 135.17481 237 ft 2 kts 154°
2026-05-07 16:13 48.52591 135.17478 235 ft 1 kts 139°
2026-05-07 16:13 48.52592 135.17477 235 ft 0 kts 139°
2026-05-07 16:16 48.52589 135.17481 237 ft 2 kts 139°
2026-05-07 16:16 48.52576 135.17498 236 ft 3 kts 139°
2026-05-07 16:16 48.52548 135.17535 237 ft 7 kts 139°
2026-05-07 16:16 48.52509 135.17591 235 ft 9 kts 128°
2026-05-07 16:17 48.52500 135.17616 237 ft 0 kts 138°
2026-05-07 16:17 48.52498 135.17615 235 ft 1 kts 158°
2026-05-07 16:17 48.52482 135.17610 236 ft 4 kts 198°
2026-05-07 16:18 48.52441 135.17589 236 ft 8 kts 198°
2026-05-07 16:18 48.52391 135.17614 235 ft 8 kts 135°
2026-05-07 16:18 48.52350 135.17681 234 ft 9 kts 130°
2026-05-07 16:18 48.52307 135.17758 235 ft 10 kts 130°
2026-05-07 16:19 48.52295 135.17854 234 ft 10 kts 59°
2026-05-07 16:19 48.52349 135.17938 234 ft 13 kts 46°
2026-05-07 16:19 48.52422 135.18043 233 ft 17 kts 42°
2026-05-07 16:19 48.52522 135.18179 234 ft 23 kts 42°
2026-05-07 16:20 48.52658 135.18362 235 ft 29 kts 42°
2026-05-07 16:20 48.52823 135.18590 236 ft 34 kts 41°
2026-05-07 16:20 48.53002 135.18833 232 ft 34 kts 42°
2026-05-07 16:20 48.53176 135.19070 234 ft 33 kts 42°
2026-05-07 16:21 48.53344 135.19298 234 ft 32 kts 41°
2026-05-07 16:21 48.53507 135.19522 235 ft 31 kts 43°
2026-05-07 16:21 48.53671 135.19742 232 ft 31 kts 41°
2026-05-07 16:21 48.53831 135.19963 233 ft 31 kts 42°
2026-05-07 16:22 48.53941 135.20078 235 ft 11 kts 352°
2026-05-07 16:22 48.53968 135.20128 236 ft 8 kts 134°
2026-05-07 16:22 48.53922 135.20086 233 ft 9 kts 222°
2026-05-07 16:22 48.53879 135.20026 233 ft 0 kts 222°
2026-05-07 16:23 48.53739 135.19833 234 ft 65 kts 222°
2026-05-07 16:23 48.53229 135.19139 233 ft 129 kts 222°
2026-05-07 16:23 48.52424 135.18037 283 ft 176 kts 222°
2026-05-07 16:24 48.51519 135.16827 956 ft 173 kts 222°
2026-05-07 16:24 48.50606 135.15654 1666 ft 173 kts 217°
2026-05-07 16:24 48.49439 135.15222 2178 ft 186 kts 171°
2026-05-07 16:24 48.48226 135.16194 2466 ft 211 kts 133°
2026-05-07 16:25 48.47622 135.18305 2761 ft 236 kts 91°
2026-05-07 16:25 48.48101 135.20735 3235 ft 256 kts 55°
2026-05-07 16:25 48.49310 135.22739 4085 ft 261 kts 40°
2026-05-07 16:25 48.50727 135.24478 4998 ft 265 kts 36°
2026-05-07 16:26 48.52213 135.26165 5873 ft 270 kts 35°
2026-05-07 16:26 48.53727 135.27898 6698 ft 276 kts 36°
2026-05-07 16:26 48.55247 135.29700 7547 ft 280 kts 37°
2026-05-07 16:26 48.56773 135.31572 8390 ft 284 kts 37°
2026-05-07 16:27 48.58301 135.33496 9212 ft 289 kts 38°
2026-05-07 16:27 48.59839 135.35472 10025 ft 293 kts 38°
2026-05-07 16:27 48.61439 135.37541 10399 ft 314 kts 38°
2026-05-07 16:27 48.63159 135.39774 10759 ft 333 kts 38°
2026-05-07 16:28 48.64934 135.42086 11441 ft 340 kts 39°
2026-05-07 16:28 48.66733 135.44433 12193 ft 344 kts 38°
2026-05-07 16:28 48.68559 135.46810 12923 ft 348 kts 38°
2026-05-07 16:28 48.70401 135.49211 13628 ft 352 kts 38°
2026-05-07 16:29 48.72268 135.51650 14297 ft 357 kts 38°
2026-05-07 16:29 48.74160 135.54124 14943 ft 362 kts 38°
2026-05-07 16:29 48.76076 135.56628 15580 ft 366 kts 37°
2026-05-07 16:29 48.78023 135.59166 16195 ft 371 kts 37°
2026-05-07 16:30 48.79989 135.61731 16807 ft 375 kts 37°
2026-05-07 16:30 48.81979 135.64332 17389 ft 380 kts 37°
2026-05-07 16:30 48.83992 135.66971 17962 ft 385 kts 37°
2026-05-07 16:30 48.86025 135.69643 18537 ft 389 kts 37°
2026-05-07 16:31 48.88083 135.72350 19107 ft 393 kts 37°
2026-05-07 16:31 48.90180 135.75109 19674 ft 397 kts 37°
2026-05-07 16:31 48.92276 135.77876 20243 ft 400 kts 37°
2026-05-07 16:31 48.94386 135.80668 20787 ft 404 kts 37°
2026-05-07 16:32 48.96516 135.83492 21325 ft 407 kts 37°
2026-05-07 16:32 48.98648 135.86354 21845 ft 411 kts 39°
2026-05-07 16:32 49.00738 135.89358 22363 ft 416 kts 41°
2026-05-07 16:32 49.02796 135.92476 22860 ft 419 kts 42°
2026-05-07 16:33 49.04845 135.95665 23338 ft 422 kts 43°
2026-05-07 16:33 49.06896 135.98884 23799 ft 425 kts 43°
2026-05-07 16:33 49.08968 136.02124 24250 ft 428 kts 43°
2026-05-07 16:33 49.11074 136.05382 24649 ft 432 kts 42°
2026-05-07 16:34 49.13203 136.08641 25059 ft 435 kts 42°
2026-05-07 16:34 49.15352 136.11915 25460 ft 438 kts 42°
2026-05-07 16:34 49.17522 136.15219 25859 ft 441 kts 42°
2026-05-07 16:34 49.19695 136.18534 26240 ft 444 kts 42°
2026-05-07 16:35 49.21917 136.21936 26636 ft 446 kts 43°
2026-05-07 16:35 49.24116 136.25318 26999 ft 449 kts 43°
2026-05-07 16:35 49.26318 136.28714 27374 ft 452 kts 43°
2026-05-07 16:35 49.28542 136.32149 27723 ft 455 kts 43°
2026-05-07 16:36 49.30772 136.35591 28079 ft 457 kts 43°
2026-05-07 16:36 49.33022 136.39066 28407 ft 460 kts 43°
2026-05-07 16:36 49.35272 136.42548 28738 ft 462 kts 43°
2026-05-07 16:36 49.37540 136.46071 29059 ft 465 kts 43°
2026-05-07 16:37 49.39815 136.49613 29373 ft 467 kts 43°
2026-05-07 16:37 49.42068 136.53247 29665 ft 471 kts 48°
2026-05-07 16:37 49.44011 136.57321 29941 ft 475 kts 58°
2026-05-07 16:37 49.45541 136.61827 30210 ft 478 kts 67°
2026-05-07 16:38 49.46693 136.66633 30459 ft 481 kts 71°
2026-05-07 16:38 49.47808 136.71512 30676 ft 485 kts 71°
2026-05-07 16:38 49.48938 136.76416 30872 ft 489 kts 70°
2026-05-07 16:38 49.50084 136.81368 31095 ft 492 kts 70°
2026-05-07 16:39 49.51231 136.86336 31323 ft 495 kts 70°
2026-05-07 16:39 49.52378 136.91329 31611 ft 496 kts 71°
2026-05-07 16:39 49.53522 136.96346 31892 ft 497 kts 71°
2026-05-07 16:39 49.54666 137.01381 32148 ft 499 kts 71°
2026-05-07 16:40 49.55823 137.06498 32398 ft 500 kts 71°
2026-05-07 16:40 49.56965 137.11568 32653 ft 502 kts 71°
2026-05-07 16:40 49.58110 137.16654 32929 ft 503 kts 71°
2026-05-07 16:40 49.59260 137.21761 33196 ft 504 kts 71°
2026-05-07 16:41 49.60410 137.26867 33455 ft 505 kts 71°
2026-05-07 16:41 49.61562 137.31990 33720 ft 506 kts 71°
2026-05-07 16:41 49.62714 137.37123 33974 ft 508 kts 71°
2026-05-07 16:41 49.63868 137.42284 34263 ft 508 kts 71°
2026-05-07 16:42 49.65014 137.47439 34547 ft 508 kts 71°
2026-05-07 16:42 49.66155 137.52599 34794 ft 509 kts 71°
2026-05-07 16:42 49.67293 137.57760 34877 ft 505 kts 71°
2026-05-07 16:43 49.69163 137.66262 34880 ft 501 kts 72°
2026-05-07 16:43 49.71388 137.76423 34877 ft 498 kts 72°
2026-05-07 16:44 49.73599 137.86562 34877 ft 498 kts 71°
2026-05-07 16:44 49.75810 137.96717 34879 ft 498 kts 72°
2026-05-07 16:45 49.78003 138.06866 34876 ft 497 kts 72°
2026-05-07 16:45 49.80195 138.17076 34873 ft 497 kts 72°
2026-05-07 16:46 49.82368 138.27236 34871 ft 497 kts 72°
2026-05-07 16:46 49.84532 138.37409 34863 ft 497 kts 72°
2026-05-07 16:47 49.86692 138.47611 34863 ft 499 kts 72°
2026-05-07 16:47 49.88850 138.57843 34857 ft 500 kts 72°
2026-05-07 16:48 49.90991 138.68123 34853 ft 502 kts 73°
2026-05-07 16:48 49.93106 138.78453 34852 ft 503 kts 73°
2026-05-07 16:49 49.95217 138.88829 34851 ft 505 kts 73°
2026-05-07 16:49 49.97334 138.99233 34850 ft 506 kts 73°
2026-05-07 16:50 49.99442 139.09685 34853 ft 508 kts 73°
2026-05-07 16:50 50.01554 139.20162 34858 ft 508 kts 72°
2026-05-07 16:51 50.03651 139.30620 34899 ft 506 kts 73°
2026-05-07 16:51 50.05730 139.41055 34897 ft 504 kts 73°
2026-05-07 16:52 50.07806 139.51547 34888 ft 504 kts 73°
2026-05-07 16:52 50.09863 139.61966 34871 ft 504 kts 73°
2026-05-07 16:53 50.11904 139.72416 34864 ft 505 kts 73°
2026-05-07 16:53 50.13953 139.82906 34863 ft 506 kts 73°
2026-05-07 16:54 50.15994 139.93419 34858 ft 507 kts 73°
2026-05-07 16:54 50.18016 140.03957 34857 ft 508 kts 73°
2026-05-07 16:55 50.20045 140.14515 34863 ft 508 kts 73°
2026-05-07 16:55 50.22069 140.25075 34864 ft 508 kts 73°
2026-05-07 16:56 50.24071 140.35650 34868 ft 507 kts 73°
2026-05-07 16:56 50.27049 140.51496 34873 ft 506 kts 73°
2026-05-07 16:57 50.29015 140.62054 34869 ft 506 kts 73°
2026-05-07 16:57 50.30975 140.72614 34871 ft 505 kts 74°
2026-05-07 16:58 50.32934 140.83240 34875 ft 505 kts 73°
2026-05-07 16:58 50.34876 140.93804 34881 ft 505 kts 74°
2026-05-07 16:59 50.36812 141.04369 34877 ft 505 kts 74°
2026-05-07 16:59 50.38732 141.14956 34876 ft 505 kts 74°
2026-05-07 17:00 50.40637 141.25557 34873 ft 506 kts 74°
2026-05-07 17:00 50.42544 141.36181 34872 ft 506 kts 74°
2026-05-07 17:01 50.44442 141.46818 34870 ft 507 kts 74°
2026-05-07 17:01 50.46324 141.57484 34864 ft 508 kts 74°
2026-05-07 17:02 50.48212 141.68176 34868 ft 509 kts 74°
2026-05-07 17:02 50.50099 141.78889 34868 ft 509 kts 74°
2026-05-07 17:03 50.51975 141.89638 34867 ft 510 kts 75°
2026-05-07 17:03 50.53828 142.00389 34868 ft 510 kts 75°
2026-05-07 17:04 50.55694 142.11254 34871 ft 511 kts 75°
2026-05-07 17:04 50.57534 142.22039 34872 ft 511 kts 75°
2026-05-07 17:05 50.59370 142.32840 34875 ft 511 kts 75°
2026-05-07 17:05 50.61199 142.43654 34883 ft 511 kts 75°
2026-05-07 17:06 50.63002 142.54462 34885 ft 510 kts 75°
2026-05-07 17:06 50.64799 142.65280 34886 ft 509 kts 75°
2026-05-07 17:07 50.66589 142.76064 34886 ft 509 kts 73°
2026-05-07 17:07 50.68912 142.86598 34884 ft 508 kts 69°
2026-05-07 17:08 50.71281 142.97087 34884 ft 508 kts 70°
2026-05-07 17:08 50.73643 143.07581 34878 ft 507 kts 69°
2026-05-07 17:09 50.75997 143.18074 34875 ft 507 kts 70°
2026-05-07 17:09 50.78336 143.28599 34864 ft 507 kts 70°
2026-05-07 17:10 50.80650 143.39131 34849 ft 507 kts 70°
2026-05-07 17:10 50.82960 143.49667 34856 ft 507 kts 70°
2026-05-07 17:11 50.85268 143.60209 34860 ft 508 kts 70°
2026-05-07 17:11 50.87565 143.70783 34862 ft 508 kts 70°
2026-05-07 17:12 50.89869 143.81458 34866 ft 508 kts 70°
2026-05-07 17:12 50.91997 143.91364 34868 ft 509 kts 70°
2026-05-07 17:13 50.94190 144.01599 34872 ft 508 kts 70°
2026-05-07 17:13 50.96421 144.12132 34870 ft 509 kts 70°
2026-05-07 17:14 50.98658 144.22786 34874 ft 509 kts 71°
2026-05-07 17:14 51.00512 144.31646 34882 ft 509 kts 71°
2026-05-07 17:15 51.02782 144.42356 34889 ft 509 kts 70°
2026-05-07 17:15 51.05077 144.52995 34891 ft 508 kts 70°
2026-05-07 17:16 51.07286 144.63357 34888 ft 509 kts 70°
2026-05-07 17:16 51.09492 144.73875 34890 ft 508 kts 70°
2026-05-07 17:17 51.11719 144.84548 34891 ft 508 kts 71°
2026-05-07 17:17 51.13948 144.95242 34892 ft 508 kts 70°
2026-05-07 17:18 51.16169 145.05902 34891 ft 508 kts 71°
2026-05-07 17:18 51.18381 145.16603 34893 ft 508 kts 71°
2026-05-07 17:19 51.20578 145.27297 34895 ft 508 kts 71°
2026-05-07 17:19 51.22768 145.38008 34897 ft 507 kts 71°
2026-05-07 17:20 51.24932 145.48713 34898 ft 507 kts 71°
2026-05-07 17:20 51.27110 145.59501 34899 ft 507 kts 71°
2026-05-07 17:21 51.29249 145.70145 34899 ft 506 kts 71°
2026-05-07 17:21 51.31401 145.80916 34899 ft 505 kts 71°
2026-05-07 17:22 51.33532 145.91612 34898 ft 505 kts 71°
2026-05-07 17:22 51.35644 146.02323 34896 ft 504 kts 71°
2026-05-07 17:23 51.37738 146.13021 34893 ft 504 kts 71°
2026-05-07 17:23 51.39852 146.23827 34881 ft 515 kts 72°
2026-05-07 17:24 51.42007 146.34914 34879 ft 524 kts 72°
2026-05-07 17:24 51.44159 146.46093 34880 ft 525 kts 72°
2026-05-07 17:25 51.46266 146.57304 34878 ft 526 kts 72°
2026-05-07 17:25 51.48356 146.68564 34879 ft 526 kts 73°
2026-05-07 17:26 51.50449 146.79818 34870 ft 527 kts 72°
2026-05-07 17:26 51.52543 146.91097 34863 ft 527 kts 73°
2026-05-07 17:27 51.54614 147.02386 34864 ft 527 kts 73°
2026-05-07 17:27 51.56680 147.13682 34862 ft 527 kts 73°
2026-05-07 17:28 51.58740 147.24992 34861 ft 527 kts 73°
2026-05-07 17:28 51.60806 147.36389 34863 ft 527 kts 73°
2026-05-07 17:29 51.62827 147.47722 34869 ft 527 kts 73°
2026-05-07 17:29 51.64846 147.59063 34875 ft 527 kts 73°
2026-05-07 17:30 51.66855 147.70402 34884 ft 526 kts 73°
2026-05-07 17:30 51.68854 147.81747 34886 ft 526 kts 73°
2026-05-07 17:31 51.70843 147.93097 34889 ft 526 kts 73°
2026-05-07 17:31 51.72810 148.04429 34889 ft 525 kts 73°
2026-05-07 17:32 51.74773 148.15783 34889 ft 525 kts 73°
2026-05-07 17:32 51.76728 148.27125 34885 ft 525 kts 74°
2026-05-07 17:33 51.78666 148.38509 34880 ft 525 kts 74°
2026-05-07 17:33 51.80590 148.49876 34871 ft 526 kts 74°
2026-05-07 17:34 51.82512 148.61289 34863 ft 526 kts 74°
2026-05-07 17:34 51.84415 148.72708 34852 ft 527 kts 74°
2026-05-07 17:35 51.86317 148.84174 34847 ft 528 kts 74°
2026-05-07 17:35 51.88227 148.95733 34846 ft 529 kts 75°
2026-05-07 17:36 51.90095 149.07177 34846 ft 530 kts 75°
2026-05-07 17:36 51.91985 149.18786 34848 ft 529 kts 75°
2026-05-07 17:37 51.93860 149.30324 34849 ft 530 kts 75°
2026-05-07 17:37 51.95723 149.41913 34854 ft 531 kts 75°
2026-05-07 17:38 51.97572 149.53507 34864 ft 531 kts 75°
2026-05-07 17:38 51.99403 149.65112 34867 ft 530 kts 75°
2026-05-07 17:39 52.01219 149.76693 34871 ft 530 kts 75°
2026-05-07 17:39 52.03019 149.88296 34869 ft 529 kts 75°
2026-05-07 17:40 52.04812 149.99869 34855 ft 529 kts 75°
2026-05-07 17:40 52.06555 150.11469 34846 ft 528 kts 76°
2026-05-07 17:41 52.08217 150.23110 34840 ft 528 kts 77°
2026-05-07 17:41 52.09846 150.34732 34840 ft 528 kts 77°
2026-05-07 17:42 52.11491 150.46374 34837 ft 527 kts 76°
2026-05-07 17:42 52.13145 150.57990 34837 ft 527 kts 76°
2026-05-07 17:43 52.14776 150.69619 34838 ft 526 kts 77°
2026-05-07 17:43 52.16381 150.81247 34839 ft 526 kts 77°
2026-05-07 17:44 52.17994 150.92919 34817 ft 525 kts 77°
2026-05-07 17:44 52.19586 151.04520 34814 ft 524 kts 77°
2026-05-07 17:45 52.21160 151.16103 34790 ft 523 kts 77°
2026-05-07 17:45 52.22719 151.27706 34772 ft 524 kts 77°
2026-05-07 17:46 52.24263 151.39316 34758 ft 524 kts 77°
2026-05-07 17:46 52.25595 151.48972 34752 ft 525 kts 76°
2026-05-07 17:47 52.27239 151.60595 34746 ft 526 kts 76°
2026-05-07 17:47 52.28874 151.72246 34746 ft 527 kts 76°
2026-05-07 17:48 52.30476 151.83928 34745 ft 528 kts 77°
2026-05-07 17:48 52.32077 151.95723 34744 ft 529 kts 77°
2026-05-07 17:49 52.33664 152.07483 34751 ft 530 kts 77°
2026-05-07 17:49 52.35233 152.19255 34757 ft 530 kts 77°
2026-05-07 17:50 52.36787 152.31045 34767 ft 530 kts 77°
2026-05-07 17:50 52.38334 152.42824 34768 ft 529 kts 77°
2026-05-07 17:51 52.39882 152.54613 34770 ft 529 kts 77°
2026-05-07 17:51 52.41414 152.66377 34771 ft 528 kts 77°
2026-05-07 17:52 52.42917 152.78140 34774 ft 527 kts 78°
2026-05-07 17:52 52.44409 152.89920 34773 ft 527 kts 78°
2026-05-07 17:53 52.45888 153.01671 34772 ft 527 kts 78°
2026-05-07 17:53 52.47364 153.13445 34770 ft 527 kts 78°
2026-05-07 17:54 52.48832 153.25246 34768 ft 527 kts 78°
2026-05-07 17:54 52.50285 153.37041 34761 ft 527 kts 78°
2026-05-07 17:55 52.51724 153.48854 34761 ft 528 kts 78°
2026-05-07 17:55 52.53152 153.60679 34755 ft 529 kts 78°
2026-05-07 17:56 52.54581 153.72612 34748 ft 529 kts 78°
2026-05-07 17:56 52.55981 153.84427 34745 ft 530 kts 78°
2026-05-07 17:57 52.57149 153.94398 34747 ft 530 kts 79°
2026-05-07 17:57 52.58767 154.08306 34746 ft 530 kts 79°
2026-05-07 17:58 52.60142 154.20229 34747 ft 531 kts 79°
2026-05-07 17:58 52.61501 154.32166 34753 ft 531 kts 79°
2026-05-07 17:59 52.62850 154.44098 34754 ft 530 kts 79°
2026-05-07 17:59 52.64190 154.56016 34757 ft 529 kts 79°
2026-05-07 18:00 52.65512 154.67931 34760 ft 528 kts 79°
2026-05-07 18:00 52.66803 154.79850 34758 ft 527 kts 79°
2026-05-07 18:01 52.68065 154.91735 34759 ft 526 kts 79°
2026-05-07 18:01 52.69324 155.03587 34756 ft 526 kts 79°
2026-05-07 18:02 52.71198 155.21384 34750 ft 524 kts 79°
2026-05-07 18:03 52.72435 155.33237 34743 ft 524 kts 80°
2026-05-07 18:03 52.73650 155.45152 34735 ft 523 kts 80°
2026-05-07 18:04 52.74850 155.56994 34733 ft 524 kts 80°
2026-05-07 18:04 52.76045 155.68850 34724 ft 524 kts 80°
2026-05-07 18:05 52.77220 155.80734 34731 ft 524 kts 80°
2026-05-07 18:05 52.78387 155.92607 34726 ft 525 kts 80°
2026-05-07 18:06 52.79542 156.04542 34731 ft 526 kts 81°
2026-05-07 18:06 52.80675 156.16455 34723 ft 519 kts 81°
2026-05-07 18:06 52.81221 156.22274 34611 ft 509 kts 81°
2026-05-07 18:07 52.81854 156.27979 34355 ft 503 kts 73°
2026-05-07 18:07 52.82807 156.33543 34107 ft 501 kts 72°
2026-05-07 18:07 52.83763 156.39060 33857 ft 501 kts 72°
2026-05-07 18:07 52.84720 156.44619 33609 ft 500 kts 73°
2026-05-07 18:08 52.85665 156.50157 33286 ft 498 kts 73°
2026-05-07 18:08 52.86594 156.55638 32702 ft 495 kts 73°
2026-05-07 18:08 52.87516 156.61110 32143 ft 491 kts 73°
2026-05-07 18:08 52.88429 156.66532 31569 ft 488 kts 73°
2026-05-07 18:09 52.89339 156.71937 31019 ft 484 kts 73°
2026-05-07 18:09 52.90240 156.77287 30471 ft 481 kts 73°
2026-05-07 18:09 52.91131 156.82606 29923 ft 477 kts 73°
2026-05-07 18:09 52.92011 156.87897 29383 ft 473 kts 73°
2026-05-07 18:10 52.92880 156.93131 28854 ft 469 kts 73°
2026-05-07 18:10 52.93742 156.98314 28331 ft 465 kts 73°
2026-05-07 18:10 52.94595 157.03457 27813 ft 460 kts 74°
2026-05-07 18:10 52.95445 157.08611 27302 ft 455 kts 74°
2026-05-07 18:11 52.96274 157.13650 26810 ft 450 kts 74°
2026-05-07 18:11 52.96816 157.16945 26491 ft 446 kts 74°
2026-05-07 18:11 52.97896 157.23540 25863 ft 439 kts 74°
2026-05-07 18:11 52.98689 157.28409 25400 ft 434 kts 74°
2026-05-07 18:12 52.99470 157.33219 24944 ft 429 kts 74°
2026-05-07 18:12 53.00239 157.37982 24487 ft 425 kts 75°
2026-05-07 18:12 53.00993 157.42683 24032 ft 421 kts 75°
2026-05-07 18:12 53.01743 157.47365 23574 ft 416 kts 75°
2026-05-07 18:13 53.02482 157.51991 23099 ft 413 kts 75°
2026-05-07 18:13 53.03219 157.56594 22630 ft 411 kts 75°
2026-05-07 18:13 53.03925 157.61183 22150 ft 409 kts 79°
2026-05-07 18:13 53.04401 157.65833 21670 ft 408 kts 81°
2026-05-07 18:14 53.04862 157.70469 21182 ft 406 kts 81°
2026-05-07 18:14 53.05320 157.75094 20697 ft 404 kts 81°
2026-05-07 18:14 53.05774 157.79687 20209 ft 402 kts 81°
2026-05-07 18:14 53.06226 157.84247 19723 ft 400 kts 81°
2026-05-07 18:15 53.06676 157.88810 19236 ft 398 kts 81°
2026-05-07 18:15 53.07118 157.93344 18752 ft 396 kts 81°
2026-05-07 18:15 53.07554 157.97840 18263 ft 393 kts 81°
2026-05-07 18:15 53.07988 158.02318 17798 ft 390 kts 81°
2026-05-07 18:16 53.08418 158.06760 17329 ft 388 kts 81°
2026-05-07 18:16 53.08843 158.11179 16861 ft 386 kts 81°
2026-05-07 18:16 53.09260 158.15567 16401 ft 383 kts 81°
2026-05-07 18:16 53.09675 158.19939 15948 ft 381 kts 81°
2026-05-07 18:17 53.10087 158.24279 15494 ft 378 kts 81°
2026-05-07 18:17 53.10492 158.28580 15050 ft 376 kts 81°
2026-05-07 18:17 53.10899 158.32923 14590 ft 373 kts 81°
2026-05-07 18:17 53.11291 158.37116 14137 ft 371 kts 81°
2026-05-07 18:18 53.11688 158.41336 13692 ft 368 kts 81°
2026-05-07 18:18 53.12086 158.45590 13240 ft 365 kts 81°
2026-05-07 18:18 53.12473 158.49752 12791 ft 363 kts 81°
2026-05-07 18:18 53.12855 158.53898 12333 ft 360 kts 81°
2026-05-07 18:19 53.13103 158.56609 12092 ft 357 kts 81°
2026-05-07 18:19 53.13473 158.60685 11589 ft 356 kts 81°
2026-05-07 18:19 53.13469 158.64759 11148 ft 352 kts 102°
2026-05-07 18:19 53.12143 158.69601 10470 ft 344 kts 130°
2026-05-07 18:20 53.11018 158.71453 9980 ft 344 kts 146°
2026-05-07 18:20 53.08953 158.73230 9679 ft 324 kts 161°
2026-05-07 18:20 53.06900 158.74612 9162 ft 314 kts 161°
2026-05-07 18:20 53.04916 158.75969 8688 ft 303 kts 160°
2026-05-07 18:21 53.02994 158.77295 8261 ft 293 kts 160°
2026-05-07 18:21 53.01172 158.78553 8025 ft 276 kts 161°
2026-05-07 18:21 52.99423 158.79667 7655 ft 263 kts 170°
2026-05-07 18:21 52.97671 158.79656 7288 ft 245 kts 199°
2026-05-07 18:22 52.96214 158.78335 6861 ft 239 kts 226°
2026-05-07 18:22 52.95535 158.76874 6544 ft 237 kts 244°
2026-05-07 18:22 52.94696 158.73537 5942 ft 238 kts 249°
2026-05-07 18:22 52.94068 158.70986 5482 ft 239 kts 249°
2026-05-07 18:23 52.93434 158.68428 5026 ft 240 kts 249°
2026-05-07 18:23 52.92790 158.65831 4533 ft 241 kts 249°
2026-05-07 18:23 52.92529 158.63136 4129 ft 238 kts 280°
2026-05-07 18:23 52.93335 158.60833 3866 ft 234 kts 320°
2026-05-07 18:24 52.94796 158.59918 3662 ft 221 kts 350°
2026-05-07 18:24 52.96250 158.59378 3462 ft 212 kts 336°
2026-05-07 18:24 52.97603 158.58425 3259 ft 210 kts 333°
2026-05-07 18:24 52.98941 158.57477 3055 ft 209 kts 334°
2026-05-07 18:25 53.00280 158.56551 2950 ft 209 kts 334°
2026-05-07 18:25 53.01626 158.55625 2758 ft 209 kts 334°
2026-05-07 18:25 53.02938 158.54726 2519 ft 199 kts 335°
2026-05-07 18:25 53.04199 158.53858 2334 ft 191 kts 336°
2026-05-07 18:26 53.05403 158.53029 2074 ft 183 kts 337°
2026-05-07 18:26 53.06545 158.52243 1860 ft 173 kts 338°
2026-05-07 18:26 53.07615 158.51505 1675 ft 159 kts 338°
2026-05-07 18:26 53.08579 158.50840 1482 ft 143 kts 338°
2026-05-07 18:27 53.09470 158.50227 1319 ft 136 kts 338°
2026-05-07 18:27 53.10333 158.49630 1150 ft 133 kts 338°
2026-05-07 18:27 53.11181 158.49044 994 ft 131 kts 338°
2026-05-07 18:27 53.12017 158.48465 836 ft 130 kts 338°
2026-05-07 18:28 53.12849 158.47892 693 ft 129 kts 338°
2026-05-07 18:28 53.13676 158.47319 545 ft 128 kts 338°
2026-05-07 18:28 53.14499 158.46755 395 ft 128 kts 338°
2026-05-07 18:28 53.15312 158.46174 237 ft 127 kts 337°
2026-05-07 18:29 53.16109 158.45624 149 ft 114 kts 338°
2026-05-07 18:29 53.16737 158.45192 149 ft 78 kts 336°
2026-05-07 18:29 53.17121 158.44924 147 ft 47 kts 337°
2026-05-07 18:29 53.17412 158.44723 151 ft 41 kts 337°
2026-05-07 18:30 53.17597 158.44553 150 ft 15 kts 270°
2026-05-07 18:30 53.17558 158.44439 148 ft 13 kts 248°
2026-05-07 18:30 53.17515 158.44258 146 ft 18 kts 249°
2026-05-07 18:30 53.17459 158.44044 145 ft 24 kts 246°
2026-05-07 18:31 53.17365 158.43765 145 ft 31 kts 239°
2026-05-07 18:31 53.17266 158.43483 144 ft 30 kts 239°
2026-05-07 18:31 53.17160 158.43180 144 ft 20 kts 240°
2026-05-07 18:31 53.17107 158.43027 144 ft 12 kts 237°
2026-05-07 18:32 53.17054 158.42888 144 ft 16 kts 237°
2026-05-07 18:32 53.17008 158.42714 144 ft 17 kts 256°
2026-05-07 18:32 53.16985 158.42611 144 ft 0 kts 243°